Regional Weather Roundup
Issued by NWS

Current Version | Previous Version | Text Only | Print | Product List | Glossary On
Versions: 1 2 3 4 5 6 7 8 9 10 11 12 13 14 15 16 17 18 19 20 21 22 23 24 25 26 27 28 29 30 31 32 33 34 35 36 37 38 39 40 41 42 43 44 45 46 47 48 49 50
000
ASUS43 KTOP 030808
RWRKS

WEATHER ROUNDUP FOR KANSAS
NATIONAL WEATHER SERVICE GOODLAND KS
300 AM CDT MON OCT 03 2022

NOTE:  "FAIR" INDICATES FEW OR NO CLOUDS BELOW 12,000 FEET WITH NO
SIGNIFICANT WEATHER AND/OR OBSTRUCTIONS TO VISIBILITY.

KSZ001>006-013>018-027>032-041>047-030900-
NORTHWEST KANSAS

CITY           SKY/WX    TMP DP  RH WIND       PRES   REMARKS
GOODLAND       MOCLDY    61  31  32 S14       30.15F
HAYS           CLEAR     53  37  54 S9        30.20S
HILL CITY      CLEAR     57  37  47 S8        30.19F
RUSSELL        CLEAR     61  36  39 S15       30.18F
$$

KSZ061>065-074>080-084>089-030900-
SOUTHWEST KANSAS

CITY           SKY/WX    TMP DP  RH WIND       PRES   REMARKS
DODGE CITY     CLEAR     56  35  45 S13       30.20F
ELKHART        CLEAR     55  31  39 S14       30.24S
GARDEN CITY    CLEAR     52  34  50 S9        30.19S
GREAT BEND     CLEAR     56  38  50 S5        30.21S
LIBERAL        CLEAR     52  32  46 S7        30.22R
PRATT          CLEAR     61  33  34 S6        30.21S
$$

KSZ066>073-081>083-090>101-030900-
SOUTHEAST KANSAS

CITY           SKY/WX    TMP DP  RH WIND       PRES   REMARKS
CHANUTE        CLEAR     60  42  51 E8        30.23S
COFFEYVILLE    CLEAR     52  41  66 CALM      30.21R
HUTCHINSON     CLEAR     56  38  50 CALM      30.21S
MEDICINE LODGE   N/A     58  35  42 CALM      30.20R
NEWTON         CLEAR     56  38  50 SE7       30.23S
PARSONS        CLEAR     58  41  53 E3        30.23S
WICHITA INTL   CLEAR     59  37  44 E3        30.20S
WICHITA JABRA  CLEAR     55  37  50 CALM      30.21S
WICHITA MCCONL CLEAR     60  37  41 CALM      30.18S
WINFIELD       CLEAR     58  39  49 E7        30.21S
$$

KSZ007>012-019>026-033>040-048>060-102>105-030900-
NORTHEAST KANSAS

CITY           SKY/WX    TMP DP  RH WIND       PRES   REMARKS
CONCORDIA      CLEAR     60  41  49 S9        30.21F
EMPORIA        CLEAR     53  42  66 CALM      30.23S
LAWRENCE       CLEAR     44  41  89 CALM      30.26R
MANHATTAN      CLEAR     57  43  59 CALM      30.23S
MARYSVILLE     CLEAR     57  43  58 CALM      30.24S
OLATHE IND     CLEAR     56  42  59 E5        30.26S
OLATHE EXE     CLEAR     59  43  55 SE6       30.26R
SALINA         CLEAR     57  40  52 SE9       30.21S
TOPEKA BILLARD CLEAR     51  45  79 CALM      30.24S
TOPEKA FORBES  CLEAR     51  45  79 SE3       30.24S
$$



USA.gov is the U.S. government's official web portal to all federal, state and local government web resources and services.